Weather in Leshino

Russia / Novgorod Oblast     58°31′00″N   31°12′35″E
temp.,
°C
wind,
m/s
gust,
m/s
humid.,
%
clouds,
%
prec.,
mm/h
press.,
hPa
HPBL,
m
16 june, wed
wed1600:00+12nnw22855 0.0 101237
03:00+11nw37654 0.0 1014122
06:00+11wnw38734 0.0 1015234
09:00+17nw345315 0.0 1016653
12:00+20wnw353966 0.0 10171873
15:00+22wnw353427 0.0 10172296
18:00+21nnw353912 0.0 10172047
21:00+16nne226496 0.0 101918
17 june, thu
thu1700:00+13sse22675 0.0 102014
03:00+12sw227749 0.0 102128
06:00+13w257896 0.0 1022145
09:00+18wnw23525 0.0 1024559
12:00+22w24400 0.0 10241459
15:00+24wsw24361 0.0 10241767
18:00+23ssw23424 0.0 10241397
21:00+18s22644 0.0 102411
18 june, fri
fri1800:00+16s22708 0.0 102515
03:00+14s248536 0.0 102563
06:00+16s25807 0.0 1025164
09:00+21ssw365979 0.0 1025437
12:00+25ssw47475 0.0 10241158
15:00+27sw57390 0.0 10231759
18:00+26ssw46470 0.0 10221405
21:00+21sw36740 0.0 102294
19 june, sat
sat1900:00+18sw34820 0.0 102254
03:00+16sw310820 0.0 1023184
06:00+17sw39810 0.0 1023255
09:00+22sw46655 0.0 1023517
12:00+26ssw57505 0.0 10231499
15:00+28ssw57400 0.0 10211770
18:00+27ssw46460 0.0 10201503
21:00+22ssw36680 0.0 102099
20 june, sun
sun2000:00+18ssw36830 0.0 102098
03:00+17ssw38885 0.0 1021163
06:00+18ssw3986100 0.0 1021279
09:00+23ssw47695 0.0 1020533
12:00+26ssw57556 0.0 10201304
15:00+28ssw57460 0.0 10181741
18:00+28ssw475023 0.0 10181374
21:00+23s386666 0.0 1017202